User: anonymous   Login
Location: Chervonnoye
(48.6000°N, 34.4000°E)
Time: 02:13:39
(UTC+00:00)
Language:

CAS-6 - Orbit

View from above orbital plane
View from above orbital plane
View from above satellite
View from above satellite

Ground track
Ground track

The orbit data is extracted from the following two-line orbital elements,

1 44881U 19093C   21332.38981948  .00000147  00000-0  25447-4 0  9996
2 44881  97.9126  49.3310 0016325 117.7587 242.5287 14.81514895105006
Epoch (UTC): 28 November 2021 09:21:20
Eccentricity: 0.0016325
inclination: 97.9126°
perigee height: 613 km
apogee height: 636 km
right ascension of ascending node: 49.3310°
argument of perigee: 117.7587°
revolutions per day: 14.81514895
mean anomaly at epoch: 242.5287°
orbit number at epoch: 10500

The dashed part of the orbit path shows where the satellite is in the earth's shadow,  

DLR